www.pogodaiklimat.ru
ПОГОДА в Аэропорту Cheddi Jagan
Время
(UTC), дата
21 12.01
00 13.01
03 13.01
09 13.01
12 13.01
15 13.01
18 13.01
21 13.01
00 14.01
03 14.01
06 14.01
09 14.01
12 14.01
15 14.01
18 14.01
21 14.01
00 15.01
03 15.01
06 15.01
09 15.01
12 15.01
15 15.01
18 15.01
21 15.01
00 16.01
03 16.01
06 16.01
09 16.01
12 16.01
15 16.01
18 16.01
21 16.01
00 17.01
03 17.01
06 17.01
09 17.01
12 17.01
15 17.01
18 17.01
00 18.01
03 18.01
06 18.01
09 18.01
12 18.01
15 18.01
18 18.01
21 18.01
00 19.01
03 19.01
06 19.01
09 19.01
12 19.01
Ветер
(напр.,м/с)
Видим. Явления Облачность Т
(С)
Тd
(С)
f
(%)
Тe
(С)
Тes
(С)
Комфортность P
(гПа)
Po
(гПа)
Тmin
(С)
Tmax
(С)
R
(мм)
R24
(мм)
S
(см)
СВ 4 14 км 5/5 630 м
[Cu med, cong]
+28.0 +22.4 72 +37 +37 очень
душно
1010.6 1010.5
СВ 1 11 км мгла 8/3 450 м
[Cu med, cong Ci sp]
+23.0 1011.9 1011.8 +31.5
СВ 1 10 км мгла 8/3 420 м
[Cu med, cong Ci sp]
+23.5 +23.4 99 +32 +32 очень
душно
1013.3 1013.2
СЗ 1 10 км мгла 5/1 420 м
[Cu med, cong Ci sp]
+22.7 +22.4 98 +31 +31 очень
душно
1011.5 1011.4
нст 1 11 км пыльные вихри {морось} 5/4 450 м
[Cu Sc Ac trans Ci sp]
+25.2 +23.5 90 +34 +37 очень
душно
1014.3 1014.2 +21.9 0.4 0.4
СВ 3 13 км мгла 9/6 500 м
[Cb cap Ac trans Ci ing]
+28.5 +22.8 71 +38 +41 очень
душно
1014.4 1014.3
СВ 3 13 км в посл. час ливневой дождь 8/6 540 м
[Cb cap Ac trans Ci ing]
+28.4 +22.3 70 +37 +40 очень
душно
1011.5 1011.4 0.4
СВ 3 13 км мгла 1/1 540 м
[Cu hum Ac trans]
+28.7 +20.4 61 +35 +36 очень
душно
1010.7 1010.6
СВ 1 12 км мгла 3/3 420 м
[Cu Sc Ci fib]
+23.4 +22.0 92 +32 +32 очень
душно
1011.7 1011.6 +30.0
нст 1 10 км мгла 8/6 400 м
[Cu Sc Ci sp]
+22.6 +22.3 98 +30 +30 очень
душно
1013.0 1012.9
СЗ 1 10 км мгла 5/3 420 м
[Cu Sc Ci sp]
+23.0 +22.6 98 +32 +32 очень
душно
1011.4 1011.3
нст 1 10 км мгла 4/4
[Cu Sc Ci sp]
+21.7 +21.3 98 +28 +28 душно 1010.9 1010.8
нст 1 13 км мгла 5/3 480 м
[Cu Sc Ac trans Ci fib]
+24.4 +23.2 93 +33 +36 очень
душно
1013.0 1012.9 +21.1 0.4
В 3 14 км мгла 9/8 540 м
[Cu Sc Ac As Ci fib]
+29.6 +22.2 64 +38 +40 очень
душно
1012.9 1012.8
СВ 3 14 км мгла 6/5 600 м
[Cu med, cong Ac As Ci fib]
+31.2 +22.1 58 +40 +44 очень
душно
1010.4 1010.3
СВ 3 14 км мгла 8/1 600 м
[Cu med, cong Ci fib]
+28.6 +21.6 66 +37 +37 очень
душно
1009.8 1009.7
СВ 2 11 км мгла 4/0
[Ci fib]
+24.3 +22.4 89 +32 +32 очень
душно
1010.6 1010.5 +31.5
СВ 1 10 км мгла 3/0
[Ci fib]
+23.5 +22.4 94 +31 +31 очень
душно
1011.8 1011.7
нст 1 10 км мгла 1/0
[Ci fib]
+22.6 +22.2 98 +30 +30 очень
душно
1010.5 1010.4
нст 1 10 км мгла 1/0
[Ci fib]
+22.0 +21.7 98 +29 +29 очень
душно
1010.9 1010.6
нст 1 10 км мгла 8/5 480 м
[Cu Sc Ac cuf Ci sp]
+23.4 +22.8 96 +33 +35 очень
душно
1012.7 1012.6 +20.1
СВ 3 9000 м слаб. ливневой дождь 10/9 450 м
[Cb calv Ac cuf]
+28.4 +23.1 73 +38 +39 очень
душно
1013.0 1012.9
С 1 8000 м слаб. дождь 10/9 420 м
[Cu Sc As op]
+23.0 +22.4 96 +31 +32 очень
душно
1011.4 1011.3 10
С 1 9000 м слаб. дождь 10/8 420 м
[Cu Sc Ac As]
+24.8 +23.6 93 +34 +34 очень
душно
1010.6 1010.5
нст 1 10 км мгла {дождь} 10/8 360 м
[Cu Sc As op]
+23.2 +22.9 98 +32 +32 очень
душно
1011.5 1011.4 +29.0
СВ 3 10 км слаб. дождь 10/8 360 м
[Cu Sc As op]
+22.7 +22.6 99 +31 +31 очень
душно
1012.1 1012.0
СЗ 1 10 км мгла {дождь} 10/8 330 м
[Cu Sc As op]
+22.5 +22.4 99 +30 +30 очень
душно
1010.3 1010.2 2
ЮЗ 1 10 км слаб. ливневой дождь 10/8 360 м
[Cu Sc As op]
+22.0 +21.9 99 +29 +29 очень
душно
1010.8 1010.7
нст 1 12 км мгла 8/4 450 м
[Cu Sc Ac trans Ci sp]
+23.9 +23.6 98 +32 +35 очень
душно
1012.7 1012.6 +22.5 13 27.8
В 2 13 км слаб. ливневой дождь 8/5 540 м
[Cu Sc Ac trans Ci sp]
+27.6 +23.9 80 +38 +44 очень
душно
1012.3 1012.2
В 2 13 км мгла 6/6 660 м
[Cu med, cong Ci fib]
+30.7 +21.5 58 +39 +44 очень
душно
1010.1 1010.0 0.9
СВ 3 13 км мгла 3/3 600 м
[Cu Sc]
+28.6 +22.2 68 +37 +38 очень
душно
1009.6 1009.5
12 км мгла ясно +24.4 +23.2 93 1010.4 1010.3 +31.2
штиль 0 12 км мгла 1/1 420 м
[Cu hum Ci fib]
+23.0 +22.6 98 +32 +32 очень
душно
1011.4 1011.3
нст 1 11 км мгла 1/1 400 м
[Cu hum]
+22.0 +21.7 98 +29 +29 очень
душно
1010.4 1010.3
ЮЗ 1 5000 м дымка 5/5 300 м
[Cu Sc Ci sp]
+21.6 +21.5 99 +28 +28 очень
душно
1010.3 1010.2
В 1 12 км в посл. час ливневой дождь 5/5 480 м
[Cb cap Ci fib]
+25.2 +24.4 95 +35 +38 очень
душно
1012.8 1012.7 +21.3 2 3.0
В 4 12 км мгла 6/5 540 м
[Cu Sc Ci fib]
+29.2 +22.5 67 +38 +44 очень
душно
1021.2 1012.0
СВ 4 14 км мгла 5/5 600 м
[Cu med, cong Ci fib]
+30.6 +22.3 61 +40 +44 очень
душно
1010.4 1010.3
В 1 11 км мгла 1/0
[Ci fib]
+24.6 +23.2 92 +33 +33 очень
душно
1010.8 1010.7 +31.3
В 1 10 км мгла 3/1 500 м
[Cu med, cong Ci fib]
+23.7 +23.4 98 +32 +32 очень
душно
1011.8 1011.7
штиль 0 10 км мгла 1/1 500 м
[Cu med, cong Ci fib]
+23.4 +23.2 99 +33 +33 очень
душно
1010.2 1010.1 0.3
нст 1 10 км мгла 8/6 480 м
[Cu Sc Ci fib]
+22.6 +22.3 98 +30 +30 очень
душно
1010.7 1010.6
ЮЗ 1 12 км мгла 3/3 450 м
[Cu Sc Ci sp]
+24.2 +23.4 95 +32 +36 очень
душно
1012.6 1012.5 +21.4 0.3
СВ 3 10 км слаб. ливневой дождь 9/8 540 м
[Cu Sc Ac trans Ci sp]
+28.2 +24.7 81 +40 +42 очень
душно
1012.6 1012.5
В 3 12 км мгла 9/6 570 м
[Cu Sc Ac cuf Ci sp]
+28.9 +24.1 75 1010.6 1010.5 3
СВ 2 11 км мгла 5/3 500 м
[Cu med, cong Ac trans Ci sp]
+27.8 +23.1 76 +37 +38 очень
душно
1010.0 1009.9
СВ 1 11 км мгла 1/1 450 м
[Cu hum Ac trans Ci sp]
+24.5 +23.4 94 +33 +33 очень
душно
1012.3 1012.2 +30.2
нст 1 11 км мгла 1/0
[Ci sp]
+22.4 +21.8 96 +30 +30 очень
душно
1013.7 1013.6
СВ 1 11 км мгла 1/0
[Ci sp]
+22.0 +21.7 98 +29 +29 очень
душно
1012.1 1012.0
СВ 1 11 км мгла 1/0
[Ci sp]
+22.6 +22.2 98 +30 +30 очень
душно
1011.5 1011.4
В 1 12 км мгла 1/1 300 м
[Cu med, cong Ci fib]
+25.9 +23.8 88 +35 +40 очень
душно
1013.1 1013.0 +20.9 2.6
Местоположение метеостанции Аэропорт Cheddi Jagan (Гайана): широта 6.50 долгота -58.25 высота над уровнем моря 29 м.
В архиве по умолчанию представлена погода в Аэропорту Cheddi Jagan за последнюю неделю. Архивные данные за месяц целиком и за предыдущие месяцы, начиная с января 2011 года, Вы можете получить, выбрав интересующий диапазон дат из раскрывающегося списка и нажав кнопку "Найти!".
*Определитесь, кто Вы:
Внимание! Время в таблицах - всемирное. Для получения местного времени необходимо прибавить поправку, которая равна -4 ч.
Смотрите также архив погоды в соседних городах и на ближайших метеорологических станциях:
Партнеры нашего сайта:
Обмен Bitcoin BTC на Приват24
обмен Bitcoin BTC на Приват24
24coin.pro

     
Пояснения к столбцам:
  • Ветер - указаны скорость ветра в м/с - средняя за 10 мин, порывы в срок и между сроками (в фигурных скобках) и направление, откуда дует ветер: С - северный,
  • СВ - северо-восточный, В - восточный, ЮВ - юго-восточный, Ю - южный, ЮЗ - юго-западный, З - западный, СЗ - северо-западный.
  • Видимость - горизонтальная дальность видимости в метрах или километрах. При видимости от 1 до 10 км при отсутствии осадков обычно наблюдается дымка, при ухудшении видимости до 1 км и менее - туман. В сухую погоду видимость может ухудшаться дымом, пылью или мглою.
  • Явления - указаны атмосферные явления, наблюдавшиеся в срок или в последний час перед сроком; фигурными скобками обозначены явления, наблюдавшиеся между сроками (за 1-3 часа до срока); квадратными скобками обозначены град или гололедные отложения с указанием их диаметра в мм.
  • Облачность - указаны через наклонную черту общая и нижняя облачность в баллах и высота нижней границы облаков в метрах; квадратными скобками обозначены формы облаков: Ci - перистые, Cs - перисто-слоистые, Cc - перисто-кучевые, Ac - высококучевые, As - высокослоистые, Sc - слоисто-кучевые, Ns - слоисто-дождевые, Cu - кучевые, Cb - кучево-дождевые. Подробнее классификацию облаков см. в Атласе облаков (PDF).
  • T - Температура воздуха - температура, измеренная на высоте 2 м над землей.
  • Td - Температура точки росы - температура, при понижении до которой содержащийся в воздухе водяной пар достигнет насыщения.
  • f - Относительная влажность воздуха - влажноcть воздуха, измеренная на высоте 2 м над землей.
  • Te - Эффективная температура - температура, которую ощущает одетый по сезону человек в тени. Характеристика душности погоды. При расчете учитывается влияние влажности воздуха и скорости ветра на теплоощущения человека.
  • Tes - Эффективная температура на солнце - температура, которую ощущает человек, с поправкой на солнечный нагрев. Характеристика знойности погоды. Зависит от высоты солнца над горизонтом, облачности и скорости ветра. Ночью, в пасмурную погоду, а также при ветре 12 м/с и более поправка равна нулю.
  • P - Атмосферное давление - приведенное к уровню моря атмосферное давление.
  • Po - Атмосферное давление - измеренное на уровне метеостанции атмосферное давление.
  • Tmin - Минимальная температура - минимум температуры воздуха на высоте 2 м над землей.
  • Tmax - Максимальная температура - максимум температуры воздуха на высоте 2 м над землей.
  • R - Количество осадков - Количество выпавших осадков за период времени, мм. При наведении курсора мыши на число - период времени, за который выпало указанное количество осадков.
  • R24 - Количество осадков - Количество выпавших осадков за 24 часа, мм.
  • S - Снежный покров - Высота снежного покрова, см. При наведении курсора мыши на число - состояние снежного покрова и степень покрытия местности в баллах.